Temp
2 2 2 1 1 -1 -4 -5 -5 -5 -7 -6 -6 -6 -6 -6 -6 -5 -5 -5 -5 -6 -6 -5 -4 -3 -3 -3 -3 -2 -2 -2 -2 -1 -1 -0 -1 -0 0 1 1 1 1 2 2 2 2
2 2 2 1 0 -0 -3 -4 -6 -5 -6 -6 -4 -6 -6 -6 -6 -6 -5 -5 -5 -5 -6 -5 -5 -4 -3 -3 -3 -2 -2 -2 -2 -2 -2 -1 -1 -1 -0 0 0 1 1 1 1 1 2
1 2 2 1 0 -1 -2 -2 -4 -6 -5 -6 -7 -5 -5 -5 -5 -5 -5 -5 -5 -4 -4 -4 -5 -5 -4 -4 -3 -3 -3 -3 -3 -2 -2 -1 -1 -1 -0 0 0 1 1 1 1 1 2
1 1 2 1 0 -1 -2 -3 -3 -5 -5 -5 -6 -6 -6 -6 -6 -5 -5 -5 -4 -4 -4 -4 -5 -5 -4 -4 -4 -3 -3 -3 -3 -3 -2 -1 -1 -1 -1 -0 -0 -0 0 1 1 1 1
1 0 1 1 0 -1 -2 -3 -4 -4 -5 -5 -6 -6 -6 -7 -6 -6 -5 -5 -4 -3 -4 -5 -4 -4 -4 -4 -4 -4 -4 -3 -3 -3 -3 -2 -2 -1 -1 -1 -1 -1 -1 -0 0 0 -0
1 0 1 1 0 -1 -2 -3 -4 -4 -5 -5 -6 -7 -7 -6 -7 -6 -6 -5 -4 -4 -5 -4 -4 -4 -4 -4 -4 -4 -4 -4 -4 -3 -3 -2 -2 -2 -2 -1 -2 -2 -2 -1 -1 -1 -2
1 0 -1 0 0 -1 -2 -3 -4 -4 -5 -6 -6 -7 -7 -7 -7 -6 -6 -5 -5 -5 -5 -4 -5 -4 -5 -4 -5 -4 -4 -4 -4 -3 -3 -2 -2 -3 -2 -2 -2 -3 -3 -3 -1 -2 -2
0 0 -1 -0 0 -1 -2 -3 -4 -5 -5 -6 -7 -7 -8 -7 -7 -6 -5 -6 -5 -5 -6 -6 -5 -5 -5 -5 -5 -5 -5 -4 -4 -4 -3 -3 -3 -3 -3 -3 -3 -4 -4 -2 -1 -3 -3
0 -0 -0 -1 -1 -1 -1 -2 -3 -5 -5 -5 -6 -6 -6 -6 -6 -5 -5 -4 -4 -5 -6 -5 -5 -5 -5 -5 -5 -5 -5 -5 -4 -4 -4 -4 -4 -4 -4 -4 -4 -4 -4 -3 -3 -3 -3
1 0 -1 -1 -2 -1 -1 -2 -3 -3 -5 -5 -5 -5 -6 -6 -4 -4 -3 -4 -4 -4 -4 -6 -6 -6 -6 -5 -6 -5 -5 -5 -5 -5 -5 -4 -4 -4 -4 -4 -5 -4 -3 -3 -3 -5 -5
1 0 -0 -1 -1 -2 -2 -2 -2 -3 -3 -4 -5 -4 -4 -4 -3 -3 -3 -4 -3 -3 -8 -6 -5 -5 -5 -5 -5 -5 -5 -5 -6 -6 -5 -4 -4 -5 -5 -5 -5 -4 -3 -3 -4 -5 -5
1 0 -0 -0 -1 -2 -2 -2 -2 -3 -4 -3 -4 -4 -4 -3 -4 -4 -4 -3 -4 -3 -7 -5 -5 -5 -5 -5 -5 -5 -5 -5 -5 -5 -5 -4 -5 -4 -4 -4 -3 -3 -3 -3 -4 -4 -4
0 0 0 -0 -1 -1 -2 -2 -2 -3 -4 -4 -3 -4 -4 -4 -4 -4 -4 -4 -3 -6 -6 -6 -6 -6 -6 -5 -5 -5 -5 -5 -5 -5 -4 -3 -3 -3 -3 -3 -3 -3 -4 -3 -4 -3 -2
1 0 0 -0 -0 -1 -1 -1 -2 -2 -3 -4 -3 -3 -4 -4 -3 -3 -4 -4 -5 -6 -6 -5 -5 -5 -5 -5 -5 -5 -5 -5 -4 -4 -5 -4 -2 -3 -3 -3 -3 -3 -3 -3 -3 -3 -2
2 0 0 0 0 -0 -1 -1 -1 -2 -3 -3 -3 -2 -3 -3 -3 -3 -3 -4 -6 -6 -5 -5 -5 -5 -5 -5 -5 -5 -5 -5 -4 -4 -4 -4 -3 -2 -2 -3 -3 -3 -3 -3 -3 -3 -3
2 2 1 1 0 0 -0 -1 -0 -1 -2 -2 -2 -1 -2 -3 -2 -2 -2 -4 -5 -5 -5 -5 -5 -4 -4 -4 -5 -4 -4 -4 -3 -4 -4 -4 -4 -2 -2 -3 -3 -3 -3 -3 -3 -3 -2
2 2 2 1 1 1 1 -1 -0 -0 -1 -2 -1 -1 -1 -2 -2 -2 -3 -5 -5 -4 -4 -4 -4 -4 -3 -4 -4 -4 -4 -3 -3 -3 -4 -4 -4 -2 -2 -2 -3 -3 -3 -4 -4 -4 -2
3 2 2 2 1 2 1 1 0 -0 -1 -1 -1 -1 -1 -1 -1 -2 -4 -4 -4 -4 -3 -3 -3 -3 -3 -3 -3 -3 -3 -3 -3 -3 -3 -4 -4 -3 -2 -3 -3 -4 -4 -4 -4 -3 -4
3 2 2 3 2 2 2 2 0 0 -0 -1 -1 -1 -1 -1 -1 -2 -3 -4 -3 -3 -3 -3 -3 -3 -3 -3 -3 -2 -3 -3 -3 -3 -3 -3 -2 -3 -1 -2 -3 -3 -3 -3 -3 -4 -3
3 3 2 2 2 1 2 2 1 1 0 -0 -1 -1 -1 -1 -1 -1 -1 -3 -3 -3 -3 -3 -3 -3 -2 -3 -2 -2 -2 -2 -3 -3 -3 -3 -2 -2 -2 -2 -2 -2 -2 -3 -3 -4 -3
2 3 2 2 2 2 2 2 2 1 1 1 -0 -1 0 -0 -1 -1 -1 -1 -2 -3 -3 -3 -3 -2 -2 -2 -2 -2 -2 -2 -2 -2 -2 -2 -2 -1 -1 -1 -1 -2 -1 -2 -2 -2 -2
2 3 3 2 2 2 1 2 3 1 1 1 1 -0 -1 0 0 -1 -0 -1 -1 -1 -2 -2 -2 -2 -2 -2 -2 -1 -1 -1 -1 -1 -1 -1 -1 -1 0 -0 -1 -1 -1 -1 -1 -1 -1
2 2 3 2 2 2 2 1 2 2 1 1 2 0 -1 -1 1 0 -0 0 0 0 -0 -1 -1 -1 -1 -1 -1 -1 -1 -1 -1 -1 -0 -1 -1 -1 -0 -0 -1 -0 1 0 0 -0 -0
2 2 3 3 2 2 1 2 1 2 1 0 0 1 1 -0 -0 1 0 0 0 -0 -0 0 0 -1 -1 -1 -0 0 -0 -0 0 -0 -1 -1 -1 -1 -0 0 -4 2 1 1 0 0 0
2 1 2 3 2 1 1 1 2 1 2 1 0 1 0 1 -0 -0 0 0 0 -0 -0 -0 0 0 0 -0 -0 1 1 0 0 -0 -1 -1 -2 -1 -1 -1 2 1 1 0 0 1 0
2 1 2 3 3 1 0 0 1 1 1 1 1 0 1 0 1 0 -1 -0 -0 -1 -0 -1 -1 -0 -0 1 0 -1 0 0 0 0 0 -0 -1 -2 -2 -2 -1 1 1 0 -0 0 -0
1 1 1 2 3 2 0 0 -0 1 1 1 1 0 -0 0 0 0 -0 -1 -1 -1 -2 -2 -1 -2 -2 -1 -0 -1 -0 -0 -0 -0 -0 -1 -1 -2 -2 -2 0 0 -1 -1 -1 0 -0
1 1 0 1 2 2 1 -0 -0 -0 1 1 1 1 1 -0 -0 -0 -0 -0 -1 -1 -2 -2 -2 -2 -2 -3 -3 -2 -2 -2 -2 -1 -1 -2 -2 -2 -3 -3 -3 -1 -1 -1 -1 -1 -1
1 0 -0 0 1 2 1 -0 -1 -1 -0 0 1 1 0 1 -0 -0 -1 -0 -1 -1 -1 -2 -3 -3 -3 -3 -3 -3 -3 -3 -2 -3 -2 -2 -1 -1 -2 -0 -1 -1 -2 -2 -2 -2 -2
Height
3087 3079 3071 3062 3053 3043 3036 3028 3020 3010 2998 2992 2987 2988 2991 2995 2998 3000 3003 3006 3008 3008 3012 3016 3022 3029 3036 3042 3046 3049 3052 3057 3060 3063 3067 3070 3074 3078 3080 3082 3083 3083 3086 3087 3089 3090 3087
3087 3080 3071 3064 3055 3047 3037 3029 3022 3017 3005 3000 3000 3000 2998 2998 2999 3001 3002 3007 3008 3010 3012 3013 3020 3025 3033 3039 3044 3049 3051 3054 3058 3061 3065 3068 3072 3076 3078 3080 3081 3081 3083 3084 3085 3086 3082
3088 3081 3073 3065 3057 3049 3039 3031 3024 3019 3015 3006 3003 2999 3002 3001 3000 3001 3003 3007 3009 3010 3012 3014 3016 3025 3032 3038 3044 3047 3050 3051 3056 3060 3064 3067 3070 3074 3076 3077 3078 3079 3080 3080 3081 3081 3079
3089 3083 3075 3066 3059 3050 3042 3034 3027 3020 3016 3013 3005 3002 2997 2999 2999 3001 3003 3007 3011 3011 3013 3016 3019 3025 3031 3037 3042 3046 3048 3050 3054 3059 3063 3066 3069 3072 3074 3075 3076 3077 3077 3077 3078 3077 3075
3091 3085 3077 3068 3060 3052 3044 3036 3030 3024 3018 3013 3008 3003 3000 2998 2998 3000 3006 3007 3013 3013 3016 3020 3022 3026 3032 3037 3041 3046 3049 3051 3056 3059 3062 3064 3067 3069 3072 3073 3074 3074 3074 3074 3075 3073 3070
3094 3086 3080 3070 3063 3055 3046 3039 3032 3026 3020 3014 3009 3002 3001 3000 2999 3002 3006 3009 3014 3017 3021 3024 3027 3033 3036 3039 3043 3046 3048 3052 3055 3059 3062 3064 3066 3067 3069 3071 3071 3071 3071 3071 3071 3071 3065
3096 3089 3081 3074 3065 3058 3050 3042 3035 3028 3021 3017 3011 3004 3001 3000 3002 3004 3008 3010 3019 3025 3027 3030 3032 3033 3038 3043 3045 3047 3049 3052 3056 3059 3061 3062 3065 3066 3067 3067 3067 3068 3069 3068 3068 3067 3057
3099 3092 3084 3077 3069 3062 3055 3046 3038 3031 3025 3020 3014 3007 3002 3003 3005 3007 3012 3015 3021 3026 3029 3032 3035 3038 3042 3044 3046 3049 3051 3054 3056 3058 3060 3063 3063 3064 3065 3064 3065 3066 3067 3065 3064 3062 3057
3100 3095 3088 3081 3075 3066 3059 3051 3042 3034 3030 3025 3019 3013 3008 3010 3010 3013 3016 3021 3025 3029 3031 3039 3040 3042 3045 3048 3048 3050 3053 3054 3057 3059 3060 3061 3063 3063 3063 3063 3064 3065 3064 3062 3061 3056 3056
3102 3096 3090 3085 3077 3071 3063 3056 3048 3040 3033 3031 3027 3021 3017 3016 3020 3021 3024 3027 3029 3033 3035 3044 3045 3046 3049 3049 3051 3052 3054 3057 3057 3059 3059 3060 3061 3062 3061 3062 3065 3063 3061 3058 3057 3060 3057
3105 3098 3092 3087 3080 3074 3068 3061 3055 3048 3039 3034 3032 3031 3029 3027 3025 3027 3030 3032 3035 3037 3044 3052 3048 3048 3050 3052 3054 3054 3055 3056 3058 3058 3061 3061 3060 3061 3063 3064 3062 3059 3057 3057 3057 3056 3055
3108 3101 3094 3089 3083 3077 3071 3065 3061 3054 3047 3041 3039 3037 3038 3038 3037 3036 3036 3037 3039 3042 3051 3053 3052 3052 3053 3053 3054 3055 3057 3059 3059 3060 3060 3061 3061 3060 3060 3059 3058 3057 3056 3054 3053 3053 3053
3110 3104 3097 3091 3086 3081 3074 3069 3065 3059 3054 3049 3045 3042 3044 3044 3046 3044 3043 3042 3042 3044 3055 3056 3055 3055 3055 3056 3057 3058 3059 3060 3060 3060 3059 3059 3058 3058 3057 3057 3057 3057 3057 3056 3055 3052 3046
3113 3106 3100 3093 3087 3083 3078 3072 3068 3063 3059 3054 3051 3048 3046 3046 3046 3047 3047 3047 3046 3054 3054 3057 3058 3059 3058 3059 3060 3061 3060 3060 3059 3060 3060 3059 3059 3059 3058 3059 3060 3057 3058 3056 3054 3049 3044
3117 3109 3103 3096 3089 3084 3080 3075 3070 3067 3063 3059 3056 3055 3052 3049 3047 3048 3049 3048 3055 3057 3060 3061 3062 3063 3062 3062 3062 3062 3061 3059 3061 3061 3062 3061 3060 3059 3059 3058 3059 3057 3055 3056 3052 3047 3045
3122 3112 3105 3099 3091 3085 3081 3077 3072 3069 3067 3063 3060 3060 3058 3056 3054 3054 3051 3051 3059 3062 3063 3063 3063 3063 3063 3063 3064 3063 3063 3063 3063 3062 3062 3063 3061 3059 3059 3058 3058 3055 3055 3054 3051 3048 3043
3124 3117 3107 3101 3094 3087 3083 3079 3075 3072 3070 3065 3062 3062 3064 3064 3065 3064 3056 3060 3063 3065 3065 3066 3065 3065 3065 3064 3065 3065 3066 3066 3065 3064 3063 3063 3063 3061 3059 3057 3055 3053 3051 3051 3050 3048 3045
3125 3119 3111 3103 3098 3091 3086 3081 3077 3073 3071 3070 3066 3065 3066 3068 3070 3067 3066 3066 3067 3068 3068 3068 3067 3066 3066 3066 3067 3066 3066 3066 3065 3065 3063 3063 3061 3057 3058 3057 3055 3051 3048 3046 3046 3047 3044
3126 3120 3114 3106 3099 3093 3088 3084 3079 3076 3073 3071 3069 3067 3068 3070 3070 3071 3073 3071 3071 3070 3070 3070 3069 3069 3068 3068 3068 3067 3066 3066 3065 3065 3064 3063 3061 3058 3056 3058 3054 3049 3045 3042 3043 3043 3042
3126 3121 3115 3108 3100 3094 3089 3086 3081 3078 3075 3073 3070 3068 3070 3072 3072 3072 3071 3073 3072 3073 3073 3072 3071 3070 3070 3069 3069 3068 3067 3067 3066 3065 3064 3062 3060 3059 3058 3056 3053 3050 3045 3042 3041 3041 3040
3126 3121 3115 3109 3103 3096 3090 3086 3083 3080 3077 3075 3071 3069 3069 3070 3073 3073 3074 3074 3076 3076 3075 3074 3073 3072 3072 3071 3070 3068 3068 3067 3066 3065 3064 3062 3059 3057 3054 3053 3051 3049 3046 3043 3040 3040 3039
3126 3120 3115 3109 3104 3098 3093 3089 3085 3081 3078 3077 3073 3070 3068 3069 3071 3075 3075 3075 3075 3076 3074 3074 3073 3072 3072 3072 3072 3070 3068 3067 3066 3065 3063 3062 3059 3056 3052 3050 3048 3046 3045 3043 3041 3038 3038
3125 3120 3113 3108 3104 3100 3093 3088 3086 3083 3079 3078 3074 3073 3071 3069 3070 3072 3075 3075 3074 3074 3075 3075 3074 3074 3073 3072 3071 3069 3068 3066 3064 3064 3062 3060 3058 3055 3050 3050 3047 3044 3040 3040 3038 3037 3037
3122 3119 3113 3108 3103 3100 3095 3089 3085 3083 3081 3080 3077 3074 3074 3072 3070 3069 3070 3072 3074 3075 3076 3075 3075 3075 3074 3073 3072 3069 3067 3064 3062 3061 3060 3058 3056 3053 3049 3047 3048 3039 3038 3038 3037 3036 3035
3119 3117 3113 3108 3103 3099 3095 3089 3085 3084 3082 3079 3078 3076 3073 3073 3071 3069 3068 3067 3069 3072 3073 3073 3073 3073 3072 3071 3069 3066 3064 3063 3059 3057 3056 3055 3054 3052 3049 3046 3040 3034 3034 3035 3034 3035 3033
3115 3113 3111 3106 3102 3098 3093 3091 3084 3082 3081 3079 3077 3075 3073 3071 3071 3070 3068 3068 3068 3066 3067 3068 3067 3067 3068 3066 3065 3066 3064 3060 3058 3055 3054 3052 3052 3052 3048 3044 3037 3031 3032 3032 3032 3031 3029
3110 3109 3107 3104 3100 3096 3092 3088 3086 3080 3078 3078 3076 3073 3072 3070 3069 3068 3068 3066 3065 3065 3064 3063 3062 3063 3063 3061 3058 3057 3056 3056 3053 3052 3051 3051 3049 3047 3045 3044 3036 3032 3031 3031 3032 3033 3027
3103 3103 3103 3101 3097 3093 3089 3087 3082 3081 3075 3074 3074 3073 3072 3068 3066 3065 3064 3064 3063 3062 3062 3062 3062 3058 3059 3059 3058 3054 3050 3049 3047 3047 3047 3046 3046 3044 3042 3040 3034 3031 3031 3032 3031 3028 3026
3096 3096 3096 3095 3093 3090 3086 3082 3080 3078 3076 3071 3068 3068 3067 3066 3064 3061 3060 3059 3059 3059 3059 3058 3060 3059 3057 3056 3055 3052 3050 3046 3042 3040 3039 3041 3039 3038 3037 3030 3028 3028 3027 3026 3023 3023 3022
Wind_Speed
37 42 47 52 54 52 48 45 44 44 42 30 13 9 13 8 8 11 10 7 3 5 19 23 23 31 31 25 29 15 14 17 18 18 16 16 16 15 16 16 17 19 20 20 21 19 24
39 40 44 49 50 51 48 45 42 40 34 28 22 12 5 6 2 3 5 6 3 4 2 9 28 29 32 27 26 20 17 21 20 17 16 15 15 14 13 14 16 17 16 18 18 18 25
40 40 42 45 45 46 47 46 42 38 34 27 20 14 3 4 2 4 1 10 0 5 2 5 11 28 24 21 23 11 17 20 18 17 15 14 12 12 12 12 15 16 17 17 18 17 21
41 41 41 42 43 43 44 42 40 38 35 26 18 12 5 5 2 1 6 11 4 1 3 9 8 17 16 18 8 14 16 15 18 13 12 12 12 11 11 12 13 14 16 12 11 17 21
41 42 41 42 41 40 40 38 37 34 34 30 21 14 8 0 4 3 9 10 5 7 12 12 11 17 19 15 11 6 5 14 16 11 10 10 10 10 10 9 10 10 11 14 12 13 18
40 40 41 38 40 39 39 39 38 36 30 31 25 19 7 5 3 5 7 8 9 15 20 16 8 11 16 12 14 4 3 10 14 12 9 8 8 7 6 8 4 8 13 13 13 13 24
39 38 40 36 39 38 38 38 39 41 35 30 26 21 11 2 5 11 9 9 15 26 20 15 12 13 16 12 7 5 7 9 8 8 7 6 4 4 6 6 7 9 12 16 14 16 26
41 38 36 35 37 36 38 39 39 40 42 36 29 26 13 7 9 15 12 16 16 24 21 13 10 10 14 10 7 3 3 7 4 5 4 3 3 5 5 4 6 9 14 16 13 8 26
42 40 35 34 35 34 37 40 41 39 38 40 37 27 22 14 16 16 14 18 20 18 22 19 13 9 7 3 3 4 5 5 4 3 3 2 3 3 2 3 8 11 14 12 15 23 23
42 40 37 33 31 34 35 39 40 41 39 33 37 32 21 19 24 21 20 15 18 12 11 11 8 7 3 8 9 8 8 7 4 3 1 2 1 3 5 5 10 14 8 15 17 16 9
44 40 37 36 31 30 32 36 38 40 42 33 27 30 26 24 26 23 21 21 17 9 6 6 5 5 4 5 7 7 7 4 3 2 3 2 2 3 6 7 9 8 12 18 21 23 27
44 41 37 36 34 30 29 32 33 35 37 38 25 26 28 18 20 24 23 17 8 5 4 3 4 9 11 10 4 5 3 2 4 1 3 3 7 9 8 10 12 13 13 16 12 8 5
44 42 39 35 34 32 29 29 29 29 30 34 31 18 13 14 15 14 14 7 6 10 5 4 9 10 8 6 8 6 5 5 2 4 8 5 3 5 5 4 3 6 10 5 3 3 5
47 43 41 38 34 32 30 27 27 27 27 26 30 26 18 11 9 6 3 6 12 5 9 16 12 9 11 10 6 4 4 6 6 5 7 8 4 6 5 6 5 11 7 4 4 2 5
47 45 41 40 37 30 28 26 24 24 22 18 23 26 23 17 10 3 7 16 7 12 16 12 11 6 5 4 3 3 6 10 7 5 2 4 4 3 3 5 6 4 6 9 7 9 5
48 45 43 40 39 36 27 25 22 21 19 13 18 20 23 23 19 17 27 25 17 17 10 6 4 5 3 4 4 4 7 9 5 5 4 3 5 3 4 6 6 11 10 4 3 3 3
47 45 44 42 41 38 30 25 19 18 18 12 15 17 17 17 13 14 30 23 15 11 9 8 12 8 9 8 7 4 6 6 5 5 4 3 3 3 4 4 8 12 5 4 6 4 2
45 46 43 44 41 39 33 27 20 17 16 13 12 15 12 12 8 16 22 20 16 13 11 9 8 8 7 6 6 5 6 6 6 6 6 6 5 8 4 6 7 9 5 10 4 1 3
42 46 44 41 42 39 34 31 23 20 16 12 13 16 12 9 9 12 15 15 13 9 7 7 4 3 3 2 3 4 3 4 5 5 5 6 5 7 1 2 9 15 17 2 5 6 3
38 44 44 41 39 37 34 30 26 23 19 12 7 11 12 7 7 7 9 8 9 8 8 6 6 6 6 6 3 3 3 3 4 6 4 4 4 3 3 2 8 10 13 3 2 4 4
35 41 44 42 36 35 33 29 26 22 21 15 8 10 9 11 6 3 3 7 4 3 3 3 4 1 1 1 2 2 4 2 3 6 4 5 5 7 7 6 7 9 8 6 2 3 4
33 38 42 41 36 34 33 31 24 20 20 17 10 7 11 10 8 4 4 4 3 2 1 1 1 2 4 5 4 5 5 4 4 5 5 5 6 13 11 7 9 10 6 4 3 4 6
33 35 40 40 36 32 30 29 27 20 17 18 15 6 3 10 9 8 4 3 3 0 1 3 3 3 3 4 5 6 5 5 5 6 5 5 8 11 4 7 13 10 10 6 4 3 4
32 32 37 39 35 32 28 26 25 20 15 15 14 10 3 4 11 11 8 5 4 4 5 4 5 6 7 9 10 11 11 11 10 10 8 8 9 7 7 7 2 3 6 10 9 8 8
32 31 33 35 35 31 29 23 24 23 18 13 13 12 6 5 8 11 12 11 8 8 8 9 9 9 10 10 13 8 7 7 7 10 10 8 8 7 4 8 16 13 12 11 10 7 9
32 30 31 32 32 33 29 24 18 21 20 16 12 11 10 6 9 13 14 13 12 11 12 12 12 12 12 14 11 5 5 8 5 7 9 10 10 11 8 4 5 3 5 7 9 12 10
33 32 30 29 29 30 30 24 21 16 18 18 15 12 11 9 7 10 15 17 17 16 15 13 14 14 14 14 11 8 8 10 6 7 6 9 13 15 15 9 9 12 10 8 6 5 6
36 34 31 27 27 27 28 26 20 19 14 16 17 17 14 12 11 7 10 15 18 19 18 16 14 14 11 11 7 7 8 9 10 12 11 13 7 6 5 6 6 6 7 7 9 13 15
37 36 31 25 24 25 27 24 22 20 17 14 12 15 15 15 16 16 14 13 14 17 18 18 17 15 8 6 7 7 10 13 20 13 16 9 8 8 10 10 15 23 27 29 29 26 19
Wind_Direction
13 10 10 14 13 10 9 4 7 10 25 45 77 108 134 137 200 257 254 255 89 84 217 208 200 201 202 201 214 225 225 208 220 217 218 219 226 231 235 240 245 251 259 267 273 277 276
13 8 12 15 16 15 13 9 6 13 20 41 29 30 133 151 223 295 255 208 70 330 256 193 201 192 195 202 205 227 191 186 197 218 213 214 212 219 232 241 248 258 266 271 277 282 284
16 8 11 13 15 17 19 15 8 7 10 18 27 56 70 128 23 21 46 166 337 348 194 196 155 178 171 177 195 217 156 192 177 178 184 196 206 217 229 242 253 266 272 281 289 290 287
18 9 12 14 13 18 19 20 17 7 7 6 11 8 91 201 284 48 105 177 75 75 65 136 154 171 171 175 147 175 209 183 169 183 191 195 203 216 231 247 262 282 289 296 296 299 289
13 11 10 16 17 19 21 21 17 15 2 358 354 350 331 132 198 112 141 196 90 106 120 127 159 160 141 151 141 128 86 205 169 174 184 194 200 216 233 256 277 280 283 293 300 292 290
10 14 10 18 25 21 26 24 22 16 7 356 353 352 354 316 144 139 124 115 101 119 125 141 131 89 101 131 138 72 110 161 165 179 188 198 211 231 251 259 263 276 290 294 294 301 294
9 12 13 14 26 26 27 29 28 26 18 6 357 358 26 43 134 125 134 136 121 114 110 112 109 94 111 128 124 81 95 142 154 185 198 204 216 236 251 261 274 282 290 296 314 307 294
10 10 14 10 20 31 31 34 33 32 26 20 18 18 37 71 114 118 138 125 127 119 106 92 90 84 113 124 140 125 128 144 159 167 187 197 223 243 254 262 282 298 301 306 310 310 307
12 10 10 16 13 23 29 31 37 37 32 26 26 34 49 75 114 119 124 139 131 125 95 87 88 113 112 142 146 139 138 117 102 147 206 222 206 204 187 282 298 294 300 321 315 315 315
14 14 11 10 15 10 19 22 27 35 40 34 30 42 56 92 110 120 127 115 123 97 74 58 103 107 120 111 109 109 115 109 85 70 30 119 194 262 284 287 295 292 317 315 317 318 307
13 15 16 12 9 12 9 13 20 26 35 43 47 54 73 86 111 118 117 127 110 95 64 20 58 120 146 87 115 126 123 87 82 40 39 55 335 280 274 288 282 289 313 315 304 297 298
14 13 16 16 13 9 8 9 14 21 29 41 50 70 76 89 118 115 122 119 102 100 70 61 97 105 111 99 114 129 108 81 82 50 333 329 289 285 300 290 302 308 318 308 298 277 245
15 13 13 14 15 12 10 11 15 20 25 34 42 68 86 77 88 139 123 61 52 58 92 83 123 109 97 92 111 99 94 95 58 28 13 358 342 328 350 27 355 317 310 313 336 215 245
11 14 13 14 14 13 13 12 16 21 20 34 40 46 54 59 93 129 136 95 66 71 107 116 98 90 95 99 105 96 38 40 15 341 345 2 14 21 31 16 320 306 270 266 293 288 301
10 10 14 12 13 13 15 16 13 19 23 40 48 39 42 52 66 124 133 98 91 106 109 103 99 75 49 56 77 49 20 44 30 7 4 350 333 14 333 313 328 332 282 300 267 274 279
11 8 11 12 12 13 13 19 19 19 23 47 58 51 47 55 76 106 109 99 105 110 100 68 56 50 68 63 60 17 32 27 25 47 72 16 317 306 315 309 304 275 301 319 275 291 285
7 10 8 11 11 14 16 16 22 25 24 48 74 68 56 54 73 98 91 96 101 94 82 73 81 75 58 69 69 43 30 55 69 27 2 344 281 290 292 264 324 350 301 300 276 254 304
3 6 10 6 11 13 14 15 30 34 22 46 78 86 72 67 79 86 88 92 92 88 84 84 76 77 69 67 60 75 64 50 9 3 351 343 295 297 302 292 329 344 285 306 213 216 253
0 2 6 10 6 13 12 14 26 34 32 34 79 88 98 87 98 93 92 89 79 76 82 85 83 59 45 62 74 56 55 38 21 11 7 354 333 325 356 66 333 340 358 258 213 258 252
356 359 1 7 5 7 15 11 15 27 30 32 85 108 113 116 105 90 98 93 98 87 85 83 79 91 82 67 62 17 356 355 9 12 353 330 311 303 231 251 328 351 7 66 164 200 160
352 357 357 1 5 2 9 15 11 18 29 29 72 122 131 149 146 150 85 112 82 64 58 53 54 101 51 9 30 16 6 309 340 357 349 328 290 308 297 281 318 346 5 26 249 190 209
349 354 355 355 359 3 1 10 12 13 21 23 42 107 135 143 163 159 149 127 101 43 52 71 82 75 46 26 41 24 10 353 357 332 337 329 300 312 307 268 292 293 293 299 44 117 169
343 351 353 349 354 1 1 2 11 5 14 16 26 33 144 156 171 172 192 186 198 236 331 331 318 325 334 343 339 322 311 310 307 317 319 319 326 317 277 295 295 274 225 225 233 192 166
334 345 352 347 348 354 356 357 5 2 3 9 12 17 338 196 185 186 186 204 238 266 290 287 291 306 314 321 323 316 298 290 285 289 304 314 326 311 289 329 331 237 231 233 248 243 239
325 337 346 346 338 346 351 355 354 1 353 355 357 358 360 281 231 216 212 209 223 249 265 278 290 295 301 311 322 320 315 303 284 274 271 282 310 308 277 296 286 277 256 241 256 266 254
317 327 337 342 337 336 352 342 356 351 356 344 339 341 345 329 261 242 240 240 240 238 249 258 262 275 289 297 309 291 295 291 272 280 276 275 284 289 292 277 249 261 271 263 270 286 270
311 317 326 333 332 329 337 344 338 345 347 349 332 321 322 327 314 271 256 254 258 262 265 261 264 266 269 272 266 257 245 258 262 261 276 284 291 272 271 264 282 276 283 266 241 272 285
304 308 314 322 322 321 329 334 332 329 336 341 343 329 313 306 306 297 281 270 262 265 265 267 279 274 268 259 262 253 244 250 257 259 282 283 279 277 268 253 291 313 304 288 295 290 290
296 299 305 310 311 314 319 326 331 324 321 322 331 330 321 305 290 289 287 284 272 271 270 271 259 267 271 259 266 280 274 279 282 277 286 269 245 253 245 245 279 290 292 290 286 281 287